Theta_e
303 304 304 304 305 308 309 313 314 317 319 321 323 324 322 321 311 316 324 328 327 322 317 318 322 333 333 334 334 333 332 331 330 331 330 330 331 331 331 330 330 329 328 328
306 305 303 306 306 310 312 313 316 314 318 319 322 324 322 317 311 314 319 325 322 318 314 312 314 318 323 328 332 332 332 331 331 332 331 328 330 332 331 331 331 330 330 330
307 306 306 309 309 310 312 313 315 319 321 321 322 326 324 320 313 313 313 315 314 314 312 310 308 307 313 318 324 329 330 330 330 330 332 331 330 331 331 331 331 331 331 330
309 308 308 311 311 313 312 312 312 315 319 325 320 328 326 321 316 311 308 306 308 306 306 306 305 304 305 310 316 320 327 330 330 330 330 331 331 331 331 331 330 331 331 330
308 311 311 313 311 312 316 314 315 316 317 319 319 321 324 320 314 313 306 304 303 302 301 301 302 302 302 306 309 314 320 324 326 329 330 330 330 330 331 330 331 331 330 329
308 309 311 310 312 313 313 316 316 316 318 320 320 315 324 322 318 308 303 301 300 301 300 299 298 298 300 303 305 308 315 317 320 323 327 329 329 329 329 329 330 331 330 330
310 311 311 311 315 314 313 314 316 317 318 320 317 310 313 310 314 307 304 300 298 299 299 298 297 297 296 297 302 302 308 310 314 317 319 320 323 323 324 325 326 328 328 329
308 312 309 309 314 313 315 314 315 317 317 314 311 315 310 305 309 303 301 300 298 296 296 297 296 296 296 296 298 300 301 305 308 309 311 313 316 317 319 320 322 324 325 327
307 310 308 310 312 312 313 312 311 310 306 313 310 309 307 304 306 304 301 300 298 296 295 294 294 294 295 297 297 298 299 301 303 303 305 306 309 311 311 312 315 317 317 317
308 312 309 310 310 308 308 307 310 312 310 316 310 312 312 307 305 306 305 302 299 297 295 294 293 293 293 295 296 298 298 297 299 300 301 301 303 305 305 306 309 310 310 311
307 310 311 309 311 310 310 309 307 308 309 313 313 312 308 307 304 303 304 303 300 298 296 294 293 293 293 294 294 295 296 296 297 297 298 299 298 301 302 307 307 306 307 309
305 309 309 310 310 308 310 310 308 304 304 306 312 310 305 303 301 300 298 298 299 297 295 294 293 293 293 293 294 294 295 295 295 296 299 299 301 301 302 299 302 303 303 303
304 302 306 311 309 309 310 311 309 308 305 306 308 311 304 302 300 299 296 295 293 293 294 293 293 293 292 292 293 293 294 295 295 296 297 296 297 298 298 298 301 301 301 301
302 304 299 307 310 311 310 309 308 302 301 307 308 309 305 303 301 299 296 295 293 292 293 292 291 291 290 291 291 291 291 292 292 293 297 299 299 298 299 297 298 297 298 298
298 300 303 305 308 308 308 307 307 306 300 302 306 304 302 302 301 299 296 295 294 293 292 291 290 290 290 290 290 291 291 291 292 294 294 293 294 294 293 293 293 294 295 294
299 295 297 303 305 306 304 301 305 304 303 302 302 302 301 300 299 299 298 297 296 294 293 292 290 289 289 289 289 290 289 290 291 291 290 290 290 290 290 290 290 290 290 290
297 292 292 301 296 296 302 298 300 305 302 303 303 302 300 299 299 300 300 299 297 295 293 291 290 289 289 289 289 289 288 288 289 289 288 288 288 288 288 288 288 288 288 288
293 290 289 292 289 296 297 293 294 302 301 301 301 299 299 298 296 295 296 297 296 295 292 291 290 289 288 288 288 288 288 287 287 287 287 287 287 287 287 287 287 287 287 288
294 291 291 296 285 291 294 293 296 298 302 299 296 296 297 296 295 294 294 294 294 293 293 292 291 289 288 288 287 288 287 287 287 286 286 286 286 286 286 286 286 286 286 286
292 292 292 286 290 290 292 292 292 294 298 296 294 295 297 297 299 297 293 291 290 291 291 291 290 289 288 287 287 287 286 286 286 286 286 286 286 286 286 285 285 284 285 284
283 283 287 285 283 287 291 292 290 292 295 294 293 295 297 294 293 290 289 290 290 290 290 290 289 289 288 287 287 287 286 286 286 286 286 286 286 286 286 285 285 284 283 283
287 285 281 280 282 287 289 293 295 293 291 292 292 292 291 288 288 288 288 288 289 289 289 289 288 288 288 287 287 286 286 286 286 285 285 285 286 286 285 285 284 284 283 283
288 288 287 288 289 289 288 292 290 290 291 292 291 289 288 288 286 287 285 285 288 289 289 289 289 288 287 287 287 287 287 287 286 286 286 286 285 285 285 285 284 284 283 283
286 282 285 284 285 286 287 288 289 290 291 291 290 289 288 287 282 284 282 285 287 287 288 288 288 287 288 287 287 287 287 287 286 286 286 285 284 284 284 283 283 283 283 283
286 284 284 285 284 281 282 283 284 285 284 285 283 285 284 286 285 284 282 286 289 289 288 287 288 288 288 287 287 287 287 286 286 285 285 285 284 284 284 283 284 283 283 282
283 286 287 287 288 287 286 280 279 281 281 279 281 282 285 287 284 287 286 289 289 289 288 288 287 287 288 288 288 287 286 287 286 285 284 284 284 284 283 283 282 282 282 281
Wind_Speed
7 8 12 21 23 11 18 16 15 12 11 20 14 9 11 12 5 2 5 8 10 11 8 7 11 21 28 28 29 29 31 28 26 22 22 23 17 23 20 19 19 18 19 20
6 16 17 12 15 15 17 10 10 3 12 22 19 11 6 9 8 4 5 8 8 10 10 10 14 23 22 19 23 28 28 30 30 25 22 23 21 21 23 20 20 20 20 22
11 10 16 14 16 16 11 12 6 5 10 6 21 9 8 6 6 10 12 12 12 9 8 4 9 14 23 22 19 19 22 26 26 27 19 16 19 18 21 22 21 23 24 22
3 5 19 11 14 8 14 16 6 8 6 9 5 6 8 8 6 8 8 8 10 9 8 1 11 15 18 18 14 16 18 18 21 21 24 20 19 15 18 20 22 24 23 20
1 13 13 7 17 18 6 15 14 11 3 4 3 6 6 12 8 10 7 8 9 10 9 9 11 12 16 15 14 12 15 14 12 16 20 18 17 14 7 10 13 17 22 21
2 2 8 9 13 15 6 9 9 7 4 1 6 4 6 9 7 8 7 8 8 8 9 11 10 11 14 16 16 13 15 13 12 9 11 12 11 11 12 6 1 9 15 18
3 1 3 12 5 5 7 1 3 4 2 3 3 8 3 5 6 11 12 8 10 9 5 10 8 11 11 16 18 11 15 17 14 8 7 9 8 6 5 3 4 9 14 12
5 3 4 0 2 6 2 2 2 4 4 1 2 4 3 5 7 12 12 9 11 10 8 8 9 11 10 15 17 13 16 20 16 11 9 9 9 9 7 7 7 9 11 15
4 4 2 4 5 2 2 2 3 6 2 4 3 4 4 6 7 8 9 9 10 8 6 7 11 11 11 19 19 15 16 15 15 11 13 12 11 10 10 9 9 9 10 10
3 2 5 5 3 5 5 4 2 4 3 4 3 3 3 4 6 7 8 9 9 6 6 6 10 11 9 14 13 14 13 13 13 11 13 16 14 15 13 12 15 10 8 6
5 3 5 1 6 5 5 4 4 5 2 3 4 2 5 3 7 8 8 8 7 7 5 4 8 10 9 12 11 14 12 11 13 11 14 14 14 15 12 13 13 11 9 8
7 4 4 6 4 5 4 6 4 4 4 3 3 3 4 6 7 9 9 8 6 5 6 6 6 6 7 8 10 13 11 13 11 12 14 15 16 12 11 11 12 10 10 9
6 4 3 3 5 7 7 5 3 3 2 3 4 4 4 7 8 8 9 8 7 8 7 6 8 6 6 7 7 8 9 9 8 9 13 15 16 13 11 11 11 9 8 9
5 5 3 3 2 2 4 6 7 5 4 1 5 9 5 5 7 6 6 8 6 5 6 6 6 9 9 9 9 10 11 9 8 10 12 13 13 11 10 9 10 11 11 13
4 5 6 8 9 9 7 6 10 6 1 5 5 7 5 5 6 5 6 7 8 7 5 5 5 7 10 9 10 10 9 8 8 11 12 13 11 11 10 11 12 13 13 14
4 1 2 9 9 11 12 12 8 9 11 9 11 7 6 5 7 6 5 5 6 7 6 6 6 9 10 9 8 7 7 9 8 10 11 12 12 12 13 13 14 15 15 16
3 3 3 3 5 6 8 8 7 4 6 6 4 5 5 5 7 5 6 6 6 6 5 6 6 9 10 9 8 8 8 7 9 11 11 11 12 13 12 13 14 15 15 15
3 3 3 2 3 5 4 2 4 5 6 7 10 5 6 7 5 6 6 6 6 6 6 6 10 12 12 11 10 10 9 9 9 10 10 10 12 13 11 12 14 14 14 15
5 4 3 3 2 2 3 4 3 4 4 3 6 5 6 6 6 6 4 4 3 4 6 9 11 12 12 12 12 11 10 9 9 10 9 9 10 12 12 12 12 13 14 14
5 6 4 4 5 3 3 3 3 2 2 5 4 5 6 5 3 2 2 3 6 7 8 10 11 12 12 12 12 12 11 11 10 10 10 10 9 9 10 11 11 11 11 14
5 4 4 3 3 5 4 4 4 6 3 3 3 3 3 2 1 5 5 5 7 7 9 9 9 10 9 10 10 10 10 9 9 9 9 9 9 9 9 10 10 11 11 11
2 3 1 2 5 3 1 3 3 2 0 1 3 2 5 6 5 5 6 5 7 8 8 8 9 9 9 10 10 10 10 10 10 10 10 10 9 8 9 9 10 10 10 10
3 4 3 4 4 3 3 2 1 1 2 2 5 4 6 6 2 3 4 3 5 6 5 6 7 9 9 10 10 11 10 11 11 10 9 9 9 9 8 9 10 10 9 9
3 1 0 4 4 4 3 2 1 1 2 3 3 5 5 5 4 2 1 2 1 3 3 5 7 9 10 10 11 10 10 10 11 12 11 10 10 11 10 11 10 10 10 11
3 3 3 4 5 4 4 4 4 3 1 2 3 2 4 6 2 2 2 4 5 4 3 4 6 8 9 9 10 11 10 11 12 12 13 13 13 12 12 11 11 11 10 11
4 5 3 4 3 4 4 2 1 5 4 4 4 0 2 5 5 6 5 6 7 9 8 7 7 8 7 10 11 13 14 14 14 15 16 17 16 15 14 13 13 13 13 13
Wind_Direction
166 198 205 209 204 231 187 238 210 248 223 199 180 140 154 160 73 76 157 104 120 94 48 27 98 158 154 161 167 180 188 188 185 172 184 191 185 183 184 194 200 201 200 199
163 220 215 210 198 226 240 255 212 286 217 185 172 171 138 118 107 61 110 110 100 89 38 14 62 104 117 131 162 174 181 183 189 181 192 195 192 195 193 194 202 208 209 211
213 237 196 206 209 198 228 227 203 188 140 170 156 180 146 95 104 91 74 81 69 86 82 321 78 46 90 101 120 146 167 180 185 192 185 185 190 203 205 205 206 212 215 220
149 252 184 201 199 195 219 208 217 175 186 153 191 149 147 151 135 117 108 92 95 74 69 352 52 39 54 85 102 118 144 157 182 192 203 191 189 191 205 214 222 222 224 213
167 205 179 182 205 192 252 184 204 172 89 104 141 130 130 140 146 150 122 108 102 94 74 31 36 48 46 77 86 100 113 131 132 168 198 205 208 204 192 228 248 238 219 218
297 319 162 164 164 173 136 162 170 106 123 150 157 131 152 172 161 126 103 102 98 97 102 71 41 43 56 63 76 82 106 103 109 120 166 194 198 203 217 232 201 209 209 213
48 69 346 124 134 155 145 196 92 67 47 57 143 59 57 34 108 139 133 124 104 101 88 86 50 52 37 49 63 55 86 86 91 101 112 119 130 130 142 139 127 142 167 161
23 120 356 25 176 128 146 83 81 111 133 96 282 96 87 80 61 101 88 96 89 86 80 89 86 63 63 58 71 60 68 79 82 84 92 110 114 110 120 136 139 150 160 179
352 73 351 33 103 109 134 53 224 105 45 81 95 60 75 108 87 116 121 101 83 73 71 87 81 61 46 59 54 49 55 75 81 88 82 90 109 114 106 115 138 145 156 166
298 73 7 344 281 14 118 148 114 30 88 90 66 78 99 163 145 146 163 127 119 111 96 79 75 78 68 78 79 71 60 60 76 84 93 84 88 96 102 116 114 113 120 135
338 8 8 280 33 10 9 35 45 108 88 129 123 60 349 79 157 155 157 141 149 149 139 105 93 87 92 97 97 95 98 86 78 89 93 96 90 87 87 77 83 90 97 105
344 43 56 40 321 255 9 22 49 94 308 37 76 82 30 75 109 112 100 113 135 134 135 121 107 115 111 105 96 94 90 84 87 79 82 76 74 73 76 85 88 89 93 110
321 14 46 25 4 360 42 349 10 103 73 18 103 120 85 85 88 95 112 114 120 136 132 127 132 124 109 86 84 93 88 86 87 90 84 86 85 82 89 83 80 94 107 110
84 35 100 102 15 337 54 13 356 80 70 58 67 121 97 91 109 114 120 123 129 128 121 122 123 118 110 107 102 92 88 88 94 92 76 69 75 77 76 98 110 113 115 116
79 63 38 36 53 77 63 14 38 56 175 97 148 102 110 128 136 143 144 135 125 120 121 124 114 105 102 92 86 90 88 82 79 86 90 90 94 101 111 116 114 118 121 121
9 135 76 35 40 69 68 21 27 44 65 75 97 73 117 101 95 107 130 125 119 127 129 116 116 113 107 109 107 104 99 105 114 107 103 109 116 120 122 121 118 120 118 120
51 97 53 41 348 359 38 357 357 39 51 128 111 151 125 82 80 61 81 89 116 126 130 136 140 139 129 129 130 118 114 117 117 118 122 120 123 123 125 126 125 120 121 126
83 72 64 165 22 47 260 312 312 65 53 67 93 92 112 113 89 63 43 95 93 115 129 136 144 142 141 141 137 131 124 120 120 116 120 125 129 125 126 129 124 122 125 126
33 102 50 97 96 244 25 350 15 26 23 48 114 109 108 128 106 41 34 50 84 86 116 139 147 146 148 146 141 136 133 132 132 128 127 131 132 134 135 129 128 130 130 127
32 51 104 39 91 121 250 286 321 288 36 335 119 143 146 165 84 205 120 91 84 91 109 129 139 145 150 152 152 148 147 148 150 148 142 141 142 142 140 135 136 135 138 137
350 -0 92 38 98 299 262 298 311 72 219 337 135 140 146 101 144 137 123 85 98 102 117 133 143 146 152 158 161 156 159 164 159 156 152 151 152 155 152 147 145 146 146 142
136 96 296 51 65 352 293 336 74 216 180 88 88 82 98 109 103 106 111 106 111 114 125 140 149 159 165 173 176 172 174 167 166 167 165 166 166 166 165 168 160 163 160 156
12 170 187 155 208 244 260 97 204 195 140 85 107 121 129 126 134 133 142 125 121 125 136 158 170 169 178 186 188 188 185 179 176 181 187 188 187 187 185 187 183 178 178 184
300 156 122 53 295 245 237 211 186 288 121 79 106 145 147 144 176 165 187 218 195 163 168 180 188 196 201 202 208 210 202 196 192 192 201 206 207 203 200 200 204 207 208 210
201 110 186 271 285 331 281 221 193 214 68 77 43 112 153 132 178 184 239 257 257 260 263 254 235 230 224 216 218 220 216 213 214 211 208 213 217 219 220 222 227 229 232 238
184 188 156 223 225 161 234 242 191 163 214 216 154 231 194 177 173 175 227 261 265 256 252 251 249 248 239 233 230 227 223 223 222 222 221 218 220 221 223 228 234 237 237 239